TimeMST,TemperatureF,Dew PointF,Humidity,Sea Level PressureIn,VisibilityMPH,Wind Direction,Wind SpeedMPH,Gust SpeedMPH,PrecipitationIn,Events,Conditions,WindDirDegrees,DateUTC
12:57 AM,68.0,37.9,33,29.98,10.0,Calm,Calm,-,N/A,,Clear,0,2013-10-26 07:57:00
1:57 AM,66.0,39.0,37,29.98,10.0,SE,3.5,-,N/A,,Clear,130,2013-10-26 08:57:00
3:57 AM,64.0,39.9,41,29.98,10.0,Calm,Calm,-,N/A,,Clear,0,2013-10-26 10:57:00
4:57 AM,63.0,39.9,43,29.98,10.0,Calm,Calm,-,N/A,,Clear,0,2013-10-26 11:57:00
5:57 AM,63.0,39.0,41,29.99,10.0,Calm,Calm,-,N/A,,Clear,0,2013-10-26 12:57:00
6:57 AM,63.0,41.0,45,30.00,10.0,Calm,Calm,-,N/A,,Mostly Cloudy,0,2013-10-26 13:57:00
7:57 AM,66.9,36.0,32,30.01,10.0,ENE,4.6,-,N/A,,Scattered Clouds,60,2013-10-26 14:57:00
8:57 AM,71.1,35.1,27,30.03,10.0,NNE,9.2,-,N/A,,Mostly Cloudy,30,2013-10-26 15:57:00
9:57 AM,80.1,34.0,19,30.03,10.0,NNE,12.7,-,N/A,,Scattered Clouds,20,2013-10-26 16:57:00
10:57 AM,82.9,32.0,16,30.03,10.0,NNE,12.7,-,N/A,,Mostly Cloudy,20,2013-10-26 17:57:00
11:57 AM,87.1,30.9,13,30.01,10.0,North,10.4,-,N/A,,Mostly Cloudy,10,2013-10-26 18:57:00
12:57 PM,89.1,30.9,12,29.98,10.0,NE,8.1,-,N/A,,Mostly Cloudy,40,2013-10-26 19:57:00
1:57 PM,91.0,28.9,11,29.95,10.0,NE,9.2,-,N/A,,Mostly Cloudy,40,2013-10-26 20:57:00
2:57 PM,90.0,30.0,12,29.94,10.0,NE,8.1,-,N/A,,Mostly Cloudy,40,2013-10-26 21:57:00
3:57 PM,91.0,30.0,11,29.93,10.0,NE,5.8,-,N/A,,Overcast,50,2013-10-26 22:57:00
4:57 PM,91.0,30.0,11,29.92,10.0,North,4.6,-,N/A,,Mostly Cloudy,10,2013-10-26 23:57:00
5:57 PM,88.0,33.1,14,29.92,10.0,Calm,Calm,-,N/A,,Mostly Cloudy,0,2013-10-27 00:57:00
6:57 PM,81.0,35.1,19,29.92,10.0,NNW,3.5,-,N/A,,Mostly Cloudy,340,2013-10-27 01:57:00
7:57 PM,79.0,37.9,23,29.92,10.0,NNE,3.5,-,N/A,,Mostly Cloudy,30,2013-10-27 02:57:00
8:57 PM,75.9,37.9,25,29.92,10.0,Calm,Calm,-,N/A,,Scattered Clouds,0,2013-10-27 03:57:00
9:57 PM,73.9,39.9,29,29.92,10.0,Calm,Calm,-,N/A,,Partly Cloudy,0,2013-10-27 04:57:00
10:57 PM,73.0,37.0,27,29.91,10.0,Calm,Calm,-,N/A,,Scattered Clouds,0,2013-10-27 05:57:00
11:57 PM,71.1,37.0,29,29.90,10.0,Calm,Calm,-,N/A,,Clear,0,2013-10-27 06:57:00